Flag for USA

Past Weather in Adak, Alaska, USA — Yesterday and Last 2 Weeks

Now
50 °F

Fog.


Feels Like: 44 °F
Forecast: 49 / 46 °F
Wind: 17 mph from South

Location: Adak

Current Time: Jul 3, 2020 at 6:03:26 pm

Latest Report: Jul 3, 2020 at 5:37 pm


Visibility: 2 mi

Pressure: 29.69 "Hg

Humidity: 100%

Dew Point: 50 °F

Location of AdakLocation

Past Weather in Adak — Graph

°F

Adak Temperature Yesterday

Maximum temperature yesterday: 54 °F (at 4:05 pm)
Minimum temperature yesterday: 45 °F (at 6:09 am)
Average temperature yesterday: 48 °F

High & Low Weather Summary for the Past Weeks

 TemperatureHumidityPressure
High54 °F (Jun 30, 12:39 pm)100% (Jun 22, 2:56 am)30.23 "Hg (Jun 22, 2:56 am)
Low41 °F (Jun 22, 1:56 am)62% (Jun 25, 6:04 pm)29.69 "Hg (Jun 27, 5:56 am)
Average47 °F89%29.94 "Hg
* Reported Jun 18 4:56 pm — Jul 3 4:56 pm, Adak. Weather by CustomWeather, © 2020

Note: Actual official high and low records may vary slightly from our data, if they occured in-between our weather recording intervals... More about our weather records

Adak Weather History for the Previous 24 Hours

Scroll right to see more
 ConditionsComfort  
Time TempWeatherWind HumidityBarometerVisibility
4:56 pm
Fri, Jul 3
49 °FLight rain. Fog.7 mph97%29.71 "Hg1 mi
3:56 pm48 °FFog.3 mph100%29.74 "Hg1 mi
2:56 pm49 °FFog.9 mph97%29.75 "Hg1 mi
2:41 pm50 °FFog.10 mph94%29.76 "Hg2 mi
2:03 pm48 °FFog.9 mph94%29.77 "Hg5 mi
1:54 pm48 °FFog.10 mph94%29.77 "Hg2 mi
1:05 pm48 °FLow clouds.10 mph94%29.78 "Hg10 mi
12:19 pm48 °FOvercast.12 mph94%29.79 "Hg10 mi
11:56 am48 °FLow clouds.14 mph93%29.79 "Hg10 mi
11:10 am46 °FLow clouds.12 mph93%29.81 "Hg10 mi
9:56 am46 °FFog.13 mph96%29.83 "Hg5 mi
8:56 am45 °FFog.15 mph97%29.84 "Hg6 mi
8:43 am45 °FFog.14 mph100%29.85 "Hg5 mi
8:05 am45 °FLow clouds.15 mph100%29.86 "Hg10 mi
7:56 am45 °FLow clouds.14 mph97%29.85 "Hg9 mi
6:56 am45 °FLow clouds.18 mph97%29.88 "Hg7 mi
5:56 am45 °FLow clouds.20 mph97%29.88 "Hg9 mi
4:56 am45 °FMostly cloudy.17 mph97%29.89 "Hg9 mi
3:56 am45 °FFog.13 mph100%29.90 "Hg5 mi
3:21 am45 °FLow clouds.13 mph100%29.94 "Hg7 mi
3:10 am45 °FLow clouds.10 mph100%29.94 "Hg7 mi
2:56 am45 °FFog.10 mph100%29.94 "Hg4 mi
2:28 am45 °FLow clouds.14 mph100%29.95 "Hg8 mi
1:56 am46 °FLow clouds.8 mph96%29.96 "Hg10 mi
1:28 am46 °FMostly cloudy.9 mph93%29.96 "Hg10 mi
1:09 am46 °FLight rain. Mostly cloudy.23 mph93%29.95 "Hg10 mi
12:56 am46 °FLight rain. Low clouds.9 mph93%29.93 "Hg10 mi
12:26 am46 °FMostly cloudy.18 mph93%29.96 "Hg10 mi
11:56 pm
Thu, Jul 2
46 °FLow clouds.21 mph93%29.95 "Hg10 mi
11:10 pm46 °FMostly cloudy.14 mph93%29.97 "Hg10 mi
10:56 pm46 °FMostly cloudy.20 mph93%29.96 "Hg10 mi
9:56 pm47 °FOvercast.13 mph90%29.96 "Hg10 mi
8:56 pm48 °FOvercast.14 mph86%29.96 "Hg10 mi
7:56 pm49 °FOvercast.9 mph84%29.96 "Hg10 mi
6:56 pm50 °FOvercast.14 mph83%29.97 "Hg10 mi
6:33 pm52 °FOvercast.13 mph77%29.97 "Hg10 mi
Weather by CustomWeather, © 2020

See weather overview